FW9148 Weather Reports


time (UTC)temp
C
wind
direction
speed
KPH
gust
KPH
rain 1hr
cm
rain 24hr
cm
rain mn
cm
humidity
%
barometer
mb
20260508153056 15 200 0.0 4.8 0.00 0.00 0.00 42 1009.5
20260508151602 15 258 1.6 9.7 0.00 0.00 0.00 44 1009.6
20260508150055 15 278 1.6 8.0 0.00 0.00 0.00 44 1009.7
20260508144556 14 259 0.0 3.2 0.00 0.00 0.00 44 1009.8
20260508143054 12 254 0.0 1.6 0.00 0.00 0.00 47 1009.8
20260508141554 12 274 0.0 6.4 0.00 0.00 0.00 48 1010.0
20260508140054 12 289 0.0 4.8 0.00 0.00 0.00 49 1010.1
20260508134559 11 304 1.6 6.4 0.00 0.00 0.00 46 1010.2
20260508133104 12 259 0.0 1.6 0.00 0.00 0.00 50 1010.2
20260508131558 12 272 0.0 3.2 0.00 0.00 0.00 48 1010.2
20260508130055 12 262 1.6 6.4 0.00 0.00 0.00 47 1010.2
20260508124555 13 271 0.0 4.8 0.00 0.00 0.00 47 1010.1
20260508123106 12 284 0.0 6.4 0.00 0.00 0.00 52 1010.0
20260508121555 12 25 0.0 4.8 0.00 0.00 0.00 52 1010.1
20260508120100 12 0 0.0 0.0 0.00 0.00 0.00 55 1010.1
20260508114554 11 0 0.0 1.6 0.00 0.00 0.00 58 1010.1
20260508113054 10 233 0.0 1.6 0.00 0.00 0.00 59 1009.9
20260508111601 8 0 0.0 1.6 0.00 0.00 0.00 66 1009.9
20260508110052 7 0 0.0 0.0 0.00 0.00 0.00 69 1009.9
20260508104555 6 0 0.0 0.0 0.00 0.00 0.00 73 1009.7
20260508103053 3 0 0.0 0.0 0.00 0.00 0.00 83 1009.7
20260508101555 1 0 0.0 0.0 0.00 0.00 0.00 89 1009.4
20260508100056 1 0 0.0 0.0 0.00 0.00 0.00 87 1009.3
20260508094605 1 0 0.0 0.0 0.00 0.00 0.00 88 1009.3
20260508093052 1 0 0.0 0.0 0.00 0.00 0.00 89 1009.2
20260508091607 0 0 0.0 0.0 0.00 0.00 0.00 89 1009.1
20260508090104 1 0 0.0 0.0 0.00 0.00 0.00 87 1009.0
20260508084558 1 0 0.0 0.0 0.00 0.00 0.00 85 1009.0
20260508083103 1 0 0.0 0.0 0.00 0.00 0.00 82 1009.1
20260508081635 1 0 0.0 0.0 0.00 0.00 0.00 81 1008.8
20260508080100 1 0 0.0 0.0 0.00 0.00 0.00 85 1008.7
20260508074555 1 0 0.0 0.0 0.00 0.00 0.00 83 1008.2
20260508073101 1 0 0.0 0.0 0.00 0.00 0.00 82 1008.1
20260508071558 1 0 0.0 0.0 0.00 0.00 0.00 82 1008.0
20260508064558 2 0 0.0 0.0 0.00 0.00 0.00 78 1007.8
20260508063057 2 0 0.0 0.0 0.00 0.00 0.00 78 1008.0
20260508061558 3 0 0.0 0.0 0.00 0.00 0.00 75 1008.1
20260508054600 2 0 0.0 0.0 0.00 0.00 0.00 83 1008.1
20260508053103 2 0 0.0 0.0 0.00 0.00 0.00 82 1008.3
20260508051554 3 0 0.0 0.0 0.00 0.00 0.00 79 1008.3
20260508050057 3 0 0.0 0.0 0.00 0.00 0.00 79 1008.7
20260508044606 4 0 0.0 0.0 0.00 0.00 0.00 77 1008.6
20260508043059 4 0 0.0 0.0 0.00 0.00 0.00 74 1008.8
20260508041556 5 0 0.0 0.0 0.00 0.00 0.00 73 1008.8
20260508034555 5 0 0.0 0.0 0.00 0.05 0.00 70 1008.6
20260508033053 5 0 0.0 0.0 0.00 0.05 0.00 70 1008.7
20260508031551 6 0 0.0 1.6 0.00 0.05 0.00 73 1008.7
20260508030100 6 0 0.0 0.0 0.00 0.05 0.00 74 1008.6
20260508024553 6 0 0.0 0.0 0.00 0.08 0.00 74 1008.6
20260508023055 6 0 0.0 0.0 0.00 0.08 0.00 70 1008.7
20260508021555 7 0 0.0 0.0 0.00 0.08 0.00 67 1008.5
20260508020053 7 0 0.0 0.0 0.00 0.08 0.00 66 1008.7
20260508014552 7 0 0.0 0.0 0.00 0.08 0.00 69 1008.7
20260508013054 6 0 0.0 0.0 0.00 0.08 0.00 70 1008.2
20260508011604 6 0 0.0 0.0 0.00 0.08 0.00 76 1008.0
20260508010053 7 0 0.0 0.0 0.00 0.08 0.00 75 1007.8
20260508004554 7 0 0.0 0.0 0.00 0.08 0.00 67 1007.6
20260508003100 8 0 0.0 0.0 0.00 0.08 0.00 64 1007.4
20260508001553 8 0 0.0 1.6 0.00 0.08 0.00 60 1007.5
20260508000054 9 0 0.0 0.0 0.00 0.08 0.00 62 1007.4
20260507234601 10 0 0.0 1.6 0.00 0.08 0.00 55 1007.1
20260507233057 11 0 0.0 1.6 0.00 0.08 0.00 49 1007.0
20260507231604 12 0 0.0 3.2 0.00 0.08 0.00 48 1006.9
20260507230100 12 221 0.0 1.6 0.00 0.08 0.00 46 1006.8
20260507224600 13 287 1.6 6.4 0.00 0.23 0.00 41 1006.7
20260507223057 13 238 0.0 6.4 0.00 0.23 0.00 44 1006.5
20260507221554 14 304 0.0 4.8 0.00 0.23 0.00 43 1006.4
20260507220053 15 283 0.0 3.2 0.00 0.23 0.00 41 1006.1
20260507214559 15 290 0.0 6.4 0.00 0.36 0.00 38 1006.0
20260507213054 15 246 0.0 4.8 0.00 0.36 0.00 38 1006.0
20260507211557 15 43 1.6 4.8 0.00 0.36 0.00 40 1006.0
20260507210057 15 255 1.6 9.7 0.00 0.36 0.00 41 1006.1
20260507204557 16 323 1.6 6.4 0.00 0.53 0.00 39 1006.1
20260507203108 16 265 0.0 3.2 0.00 0.53 0.00 40 1005.9
20260507201605 17 280 1.6 4.8 0.00 0.53 0.00 37 1005.9
20260507200100 17 0 1.6 6.4 0.00 0.53 0.00 43 1006.0
20260507194556 17 291 1.6 4.8 0.00 0.56 0.00 37 1006.1
20260507193110 17 239 0.0 4.8 0.00 0.56 0.00 41 1006.1
20260507191554 17 252 1.6 9.7 0.00 0.56 0.00 40 1006.1
20260507190054 17 304 1.6 6.4 0.00 0.56 0.00 36 1006.3
20260507184551 17 288 1.6 4.8 0.00 0.74 0.00 40 1006.6
20260507183105 17 304 1.6 6.4 0.00 0.74 0.00 35 1006.8
20260507181552 17 285 1.6 4.8 0.00 0.74 0.00 41 1007.1
20260507180055 17 276 1.6 6.4 0.00 0.74 0.00 37 1007.0
20260507174604 16 289 4.8 12.9 0.00 0.81 0.00 38 1007.1
20260507173102 17 284 3.2 9.7 0.00 0.81 0.00 36 1006.8
20260507171611 17 279 1.6 8.0 0.00 0.81 0.00 35 1006.8
20260507170058 17 298 1.6 12.9 0.00 0.81 0.00 42 1007.1
20260507164611 17 281 3.2 6.4 0.00 0.81 0.00 38 1007.1
20260507163059 17 272 1.6 6.4 0.00 0.81 0.00 41 1007.2
20260507161612 16 253 1.6 8.0 0.00 0.81 0.00 43 1007.4
20260507154554 16 245 1.6 6.4 0.00 0.81 0.00 49 1007.7